Time,TemperatureF,DewpointF,PressureIn,WindDirection,WindDirectionDegrees,WindSpeedMPH,WindSpeedGustMPH,Humidity,HourlyPrecipIn,Conditions,Clouds,dailyrainin,SoftwareType,DateUTC
2013-08-29 00:00:00,62.4,53.6,29.95,West,268,0.0,0.0,73,0.00,,,0.14,Wunderground v.1.15,2013-08-29 07:00:00,
2013-08-29 00:05:00,62.3,54.3,29.95,West,277,0.0,0.0,75,0.00,,,0.00,Wunderground v.1.15,2013-08-29 07:05:00,
2013-08-29 00:15:00,62.1,56.9,29.95,West,278,0.0,0.0,83,0.00,,,0.00,Wunderground v.1.15,2013-08-29 07:15:00,
2013-08-29 00:20:00,62.1,57.5,29.95,West,277,0.0,0.0,85,0.00,,,0.00,Wunderground v.1.15,2013-08-29 07:20:00,
2013-08-29 00:30:00,62.0,59.3,29.95,West,277,0.0,0.0,91,0.00,,,0.00,Wunderground v.1.15,2013-08-29 07:30:00,
2013-08-29 00:40:00,61.6,58.6,29.95,West,278,0.0,0.0,90,0.00,,,0.00,Wunderground v.1.15,2013-08-29 07:40:00,
2013-08-29 00:50:00,61.6,56.7,29.96,West,278,0.0,0.0,84,0.00,,,0.00,Wunderground v.1.15,2013-08-29 07:50:00,
2013-08-29 01:00:00,61.8,56.2,29.95,West,278,0.0,0.0,82,0.00,,,0.00,Wunderground v.1.15,2013-08-29 08:00:00,
2013-08-29 01:05:00,61.8,56.9,29.95,West,278,0.0,0.0,84,0.00,,,0.00,Wunderground v.1.15,2013-08-29 08:05:00,
2013-08-29 01:15:00,62.0,57.1,29.96,West,278,0.0,0.0,84,0.00,,,0.00,Wunderground v.1.15,2013-08-29 08:15:00,
2013-08-29 01:25:00,62.1,59.1,29.96,West,278,0.0,0.0,90,0.00,,,0.00,Wunderground v.1.15,2013-08-29 08:25:00,
2013-08-29 01:35:00,62.3,59.9,29.97,West,278,0.0,0.0,92,0.13,,,0.03,Wunderground v.1.15,2013-08-29 08:35:00,
2013-08-29 01:45:00,62.3,60.2,29.97,West,278,0.0,0.0,93,0.11,,,0.04,Wunderground v.1.15,2013-08-29 08:45:00,
2013-08-29 01:55:00,62.1,60.4,29.97,West,278,0.0,0.0,94,0.04,,,0.04,Wunderground v.1.15,2013-08-29 08:55:00,
2013-08-29 02:00:00,62.1,60.7,29.97,West,278,0.0,0.0,95,0.00,,,0.04,Wunderground v.1.15,2013-08-29 09:00:00,
2013-08-29 02:05:00,62.1,60.7,29.97,West,278,0.0,0.0,95,0.00,,,0.04,Wunderground v.1.15,2013-08-29 09:05:00,
2013-08-29 02:15:00,62.1,60.7,29.96,NNE,28,0.0,4.0,95,0.00,,,0.04,Wunderground v.1.15,2013-08-29 09:15:00,
2013-08-29 02:25:00,61.8,60.4,29.96,ENE,65,2.0,3.0,95,0.00,,,0.04,Wunderground v.1.15,2013-08-29 09:25:00,
2013-08-29 02:30:00,61.8,60.4,29.95,NE,41,3.0,3.0,95,0.00,,,0.04,Wunderground v.1.15,2013-08-29 09:30:00,
2013-08-29 02:40:00,61.8,60.6,29.95,ENE,59,1.0,1.0,96,0.00,,,0.04,Wunderground v.1.15,2013-08-29 09:40:00,
2013-08-29 02:50:00,62.0,60.8,29.95,ESE,102,0.0,0.0,96,0.00,,,0.04,Wunderground v.1.15,2013-08-29 09:50:00,
2013-08-29 03:00:00,62.0,60.8,29.96,East,88,1.0,3.0,96,0.00,,,0.04,Wunderground v.1.15,2013-08-29 10:00:00,
2013-08-29 03:05:00,62.1,60.9,29.96,ENE,72,2.0,4.0,96,0.00,,,0.04,Wunderground v.1.15,2013-08-29 10:05:00,
2013-08-29 03:15:00,62.3,61.1,29.95,ENE,71,4.0,6.0,96,0.00,,,0.04,Wunderground v.1.15,2013-08-29 10:15:00,
2013-08-29 03:20:00,62.3,61.1,29.95,East,85,3.0,3.0,96,0.00,,,0.04,Wunderground v.1.15,2013-08-29 10:20:00,
2013-08-29 03:25:00,62.3,61.1,29.95,East,92,2.0,3.0,96,0.00,,,0.04,Wunderground v.1.15,2013-08-29 10:25:00,
2013-08-29 03:35:00,62.4,61.2,29.94,East,97,0.0,5.0,96,0.00,,,0.04,Wunderground v.1.15,2013-08-29 10:35:00,
2013-08-29 03:45:00,62.4,61.2,29.94,East,96,2.0,7.0,96,0.00,,,0.04,Wunderground v.1.15,2013-08-29 10:45:00,
2013-08-29 03:50:00,62.4,61.2,29.94,ESE,112,4.0,5.0,96,0.00,,,0.04,Wunderground v.1.15,2013-08-29 10:50:00,
2013-08-29 04:00:00,62.4,61.2,29.94,East,99,3.0,3.0,96,0.00,,,0.05,Wunderground v.1.15,2013-08-29 11:00:00,
2013-08-29 04:05:00,62.6,61.4,29.94,East,100,2.0,3.0,96,0.00,,,0.05,Wunderground v.1.15,2013-08-29 11:05:00,
2013-08-29 04:15:00,62.6,61.4,29.94,ESE,110,3.0,4.0,96,0.00,,,0.05,Wunderground v.1.15,2013-08-29 11:15:00,
2013-08-29 04:25:00,62.6,61.4,29.94,East,90,4.0,4.0,96,0.00,,,0.06,Wunderground v.1.15,2013-08-29 11:25:00,
2013-08-29 04:35:00,62.7,61.5,29.94,SE,133,3.0,5.0,96,0.00,,,0.06,Wunderground v.1.15,2013-08-29 11:35:00,
2013-08-29 04:40:00,62.7,61.5,29.94,East,83,4.0,4.0,96,0.00,,,0.06,Wunderground v.1.15,2013-08-29 11:40:00,
2013-08-29 04:50:00,62.7,61.5,29.95,ESE,106,1.0,1.0,96,0.00,,,0.07,Wunderground v.1.15,2013-08-29 11:50:00,
2013-08-29 05:00:00,62.9,61.7,29.95,ESE,109,1.0,7.0,96,0.07,,,0.08,Wunderground v.1.15,2013-08-29 12:00:00,
2013-08-29 05:05:00,62.9,61.7,29.95,East,90,2.0,7.0,96,0.05,,,0.08,Wunderground v.1.15,2013-08-29 12:05:00,
2013-08-29 05:15:00,63.1,61.9,29.94,East,99,2.0,6.0,96,0.00,,,0.08,Wunderground v.1.15,2013-08-29 12:15:00,
2013-08-29 05:25:00,63.2,62.0,29.94,ESE,104,3.0,3.0,96,0.00,,,0.09,Wunderground v.1.15,2013-08-29 12:25:00,
2013-08-29 05:35:00,63.4,62.2,29.94,ESE,116,3.0,7.0,96,0.00,,,0.09,Wunderground v.1.15,2013-08-29 12:35:00,
2013-08-29 05:45:00,63.4,62.2,29.94,East,95,1.0,2.0,96,0.00,,,0.09,Wunderground v.1.15,2013-08-29 12:45:00,
2013-08-29 05:55:00,63.2,62.0,29.94,ESE,106,0.0,1.0,96,0.00,,,0.09,Wunderground v.1.15,2013-08-29 12:55:00,
2013-08-29 06:00:00,63.2,62.0,29.94,ESE,106,0.0,0.0,96,0.00,,,0.09,Wunderground v.1.15,2013-08-29 13:00:00,
2013-08-29 06:05:00,63.2,62.0,29.94,ESE,106,0.0,0.0,96,0.00,,,0.09,Wunderground v.1.15,2013-08-29 13:05:00,
2013-08-29 06:15:00,63.2,62.0,29.94,ESE,104,1.0,7.0,96,0.00,,,0.09,Wunderground v.1.15,2013-08-29 13:15:00,
2013-08-29 06:25:00,63.2,62.0,29.94,East,96,3.0,6.0,96,0.00,,,0.09,Wunderground v.1.15,2013-08-29 13:25:00,
2013-08-29 06:35:00,63.7,62.8,29.93,East,86,4.0,5.0,97,0.00,,,0.09,Wunderground v.1.15,2013-08-29 13:35:00,
2013-08-29 06:45:00,63.9,63.0,29.93,ESE,112,2.0,6.0,97,0.00,,,0.09,Wunderground v.1.15,2013-08-29 13:45:00,
2013-08-29 06:55:00,63.9,63.0,29.93,East,97,4.0,7.0,97,0.00,,,0.09,Wunderground v.1.15,2013-08-29 13:55:00,
2013-08-29 07:00:00,63.9,63.0,29.93,East,100,3.0,6.0,97,0.00,,,0.09,Wunderground v.1.15,2013-08-29 14:00:00,
2013-08-29 07:05:00,63.9,63.0,29.93,ESE,114,3.0,6.0,97,0.00,,,0.09,Wunderground v.1.15,2013-08-29 14:05:00,
2013-08-29 07:15:00,64.0,63.1,29.93,East,82,3.0,6.0,97,0.00,,,0.09,Wunderground v.1.15,2013-08-29 14:15:00,
2013-08-29 07:25:00,64.2,63.3,29.93,East,97,3.0,8.0,97,0.00,,,0.09,Wunderground v.1.15,2013-08-29 14:25:00,
2013-08-29 07:35:00,64.2,63.3,29.93,ESE,103,6.0,6.0,97,0.00,,,0.09,Wunderground v.1.15,2013-08-29 14:35:00,
2013-08-29 07:45:00,64.2,63.0,29.94,ESE,112,4.0,8.0,96,0.00,,,0.09,Wunderground v.1.15,2013-08-29 14:45:00,
2013-08-29 07:55:00,64.2,63.0,29.94,SE,127,3.0,5.0,96,0.00,,,0.09,Wunderground v.1.15,2013-08-29 14:55:00,
2013-08-29 08:00:00,64.3,63.1,29.93,ESE,103,3.0,5.0,96,0.00,,,0.09,Wunderground v.1.15,2013-08-29 15:00:00,
2013-08-29 08:05:00,64.3,63.1,29.93,East,93,5.0,5.0,96,0.00,,,0.09,Wunderground v.1.15,2013-08-29 15:05:00,
2013-08-29 08:15:00,64.7,63.5,29.93,ESE,117,4.0,6.0,96,0.00,,,0.09,Wunderground v.1.15,2013-08-29 15:15:00,
2013-08-29 08:25:00,65.0,63.8,29.93,ESE,114,3.0,5.0,96,0.00,,,0.09,Wunderground v.1.15,2013-08-29 15:25:00,
2013-08-29 08:35:00,65.0,63.8,29.93,ESE,117,2.0,3.0,96,0.00,,,0.09,Wunderground v.1.15,2013-08-29 15:35:00,
2013-08-29 08:45:00,65.0,63.8,29.93,East,99,1.0,4.0,96,0.00,,,0.09,Wunderground v.1.15,2013-08-29 15:45:00,
2013-08-29 08:55:00,65.0,63.8,29.93,ESE,107,2.0,4.0,96,0.00,,,0.09,Wunderground v.1.15,2013-08-29 15:55:00,
2013-08-29 09:00:00,65.0,63.8,29.94,East,95,3.0,3.0,96,0.00,,,0.09,Wunderground v.1.15,2013-08-29 16:00:00,
2013-08-29 09:05:00,65.0,63.8,29.94,East,88,2.0,3.0,96,0.00,,,0.09,Wunderground v.1.15,2013-08-29 16:05:00,
2013-08-29 09:15:00,65.0,63.8,29.95,East,80,4.0,5.0,96,0.00,,,0.09,Wunderground v.1.15,2013-08-29 16:15:00,
2013-08-29 09:25:00,65.0,63.8,29.95,NE,52,3.0,6.0,96,0.00,,,0.09,Wunderground v.1.15,2013-08-29 16:25:00,
2013-08-29 09:35:00,65.0,63.8,29.94,East,86,6.0,8.0,96,0.00,,,0.09,Wunderground v.1.15,2013-08-29 16:35:00,
2013-08-29 09:45:00,65.0,63.8,29.93,East,99,5.0,6.0,96,0.00,,,0.10,Wunderground v.1.15,2013-08-29 16:45:00,
2013-08-29 09:55:00,65.2,64.0,29.93,East,97,2.0,6.0,96,0.00,,,0.10,Wunderground v.1.15,2013-08-29 16:55:00,
2013-08-29 10:00:00,65.2,63.7,29.93,ESE,123,2.0,7.0,95,0.00,,,0.10,Wunderground v.1.15,2013-08-29 17:00:00,
2013-08-29 10:05:00,65.3,63.8,29.93,ENE,76,3.0,7.0,95,0.00,,,0.10,Wunderground v.1.15,2013-08-29 17:05:00,
2013-08-29 10:15:00,65.3,62.9,29.93,ESE,116,4.0,7.0,92,0.00,,,0.10,Wunderground v.1.15,2013-08-29 17:15:00,
2013-08-29 10:25:00,65.6,63.2,29.93,ESE,107,3.0,3.0,92,0.00,,,0.10,Wunderground v.1.15,2013-08-29 17:25:00,
2013-08-29 10:35:00,65.8,63.7,29.94,ESE,104,0.0,4.0,93,0.00,,,0.10,Wunderground v.1.15,2013-08-29 17:35:00,
2013-08-29 10:45:00,66.0,63.9,29.94,East,83,0.0,0.0,93,0.00,,,0.10,Wunderground v.1.15,2013-08-29 17:45:00,
2013-08-29 10:55:00,66.3,64.2,29.94,East,96,0.0,0.0,93,0.00,,,0.10,Wunderground v.1.15,2013-08-29 17:55:00,
2013-08-29 11:00:00,66.4,64.3,29.95,ESE,103,1.0,2.0,93,0.00,,,0.10,Wunderground v.1.15,2013-08-29 18:00:00,
2013-08-29 11:05:00,66.9,64.5,29.95,ESE,116,1.0,2.0,92,0.00,,,0.10,Wunderground v.1.15,2013-08-29 18:05:00,
2013-08-29 11:15:00,67.1,63.7,29.95,ESE,119,1.0,1.0,89,0.00,,,0.10,Wunderground v.1.15,2013-08-29 18:15:00,
2013-08-29 11:25:00,66.9,61.6,29.95,East,99,0.0,1.0,83,0.00,,,0.10,Wunderground v.1.15,2013-08-29 18:25:00,
2013-08-29 11:35:00,66.9,61.2,29.96,East,90,1.0,3.0,82,0.00,,,0.10,Wunderground v.1.15,2013-08-29 18:35:00,
2013-08-29 11:40:00,66.9,61.6,29.96,East,95,1.0,5.0,83,0.00,,,0.10,Wunderground v.1.15,2013-08-29 18:40:00,
2013-08-29 11:50:00,67.4,60.3,29.95,East,83,2.0,6.0,78,0.00,,,0.10,Wunderground v.1.15,2013-08-29 18:50:00,
2013-08-29 12:00:00,67.9,59.7,29.95,ENE,64,4.0,4.0,75,0.00,,,0.10,Wunderground v.1.15,2013-08-29 19:00:00,
2013-08-29 12:05:00,67.9,59.7,29.95,East,79,3.0,4.0,75,0.00,,,0.10,Wunderground v.1.15,2013-08-29 19:05:00,
2013-08-29 12:15:00,67.4,59.6,29.95,ESE,109,7.0,12.0,76,0.00,,,0.10,Wunderground v.1.15,2013-08-29 19:15:00,
2013-08-29 12:25:00,67.3,59.5,29.95,ESE,107,4.0,11.0,76,0.00,,,0.10,Wunderground v.1.15,2013-08-29 19:25:00,
2013-08-29 12:30:00,67.3,60.2,29.96,East,97,5.0,10.0,78,0.00,,,0.10,Wunderground v.1.15,2013-08-29 19:30:00,
2013-08-29 12:40:00,66.9,59.1,29.96,ESE,107,7.0,7.0,76,0.00,,,0.10,Wunderground v.1.15,2013-08-29 19:40:00,
2013-08-29 12:50:00,66.4,62.4,29.96,East,92,7.0,11.0,87,0.00,,,0.10,Wunderground v.1.15,2013-08-29 19:50:00,
2013-08-29 13:00:00,66.3,63.6,29.95,East,100,7.0,7.0,91,0.00,,,0.10,Wunderground v.1.15,2013-08-29 20:00:00,
2013-08-29 13:05:00,66.4,64.0,29.95,East,90,8.0,10.0,92,0.00,,,0.10,Wunderground v.1.15,2013-08-29 20:05:00,
2013-08-29 13:15:00,66.9,63.9,29.96,SE,136,6.0,9.0,90,0.00,,,0.10,Wunderground v.1.15,2013-08-29 20:15:00,
2013-08-29 13:20:00,67.1,62.8,29.96,SSE,151,4.0,10.0,86,0.00,,,0.10,Wunderground v.1.15,2013-08-29 20:20:00,
2013-08-29 13:30:00,67.4,59.6,29.98,ESE,106,7.0,11.0,76,0.00,,,0.10,Wunderground v.1.15,2013-08-29 20:30:00,
2013-08-29 13:40:00,68.4,59.0,29.98,ESE,120,9.0,9.0,72,0.00,,,0.11,Wunderground v.1.15,2013-08-29 20:40:00,
2013-08-29 13:50:00,68.6,59.2,29.97,East,99,9.0,15.0,72,0.00,,,0.11,Wunderground v.1.15,2013-08-29 20:50:00,
2013-08-29 14:00:00,70.4,58.5,29.98,ESE,110,8.0,8.0,66,0.00,,,0.11,Wunderground v.1.15,2013-08-29 21:00:00,
2013-08-29 14:10:00,71.6,57.9,29.98,ESE,119,7.0,14.0,62,0.00,,,0.11,Wunderground v.1.15,2013-08-29 21:10:00,
2013-08-29 14:15:00,71.8,56.7,29.97,ESE,112,10.0,14.0,59,0.00,,,0.11,Wunderground v.1.15,2013-08-29 21:15:00,
2013-08-29 14:25:00,72.0,56.9,29.97,ESE,103,8.0,12.0,59,0.00,,,0.11,Wunderground v.1.15,2013-08-29 21:25:00,
2013-08-29 14:35:00,71.6,56.5,29.97,ESE,123,10.0,17.0,59,0.00,,,0.11,Wunderground v.1.15,2013-08-29 21:35:00,
2013-08-29 14:45:00,71.1,56.0,29.98,ESE,110,8.0,17.0,59,0.00,,,0.11,Wunderground v.1.15,2013-08-29 21:45:00,
2013-08-29 14:55:00,70.6,56.0,29.98,East,100,12.0,12.0,60,0.00,,,0.11,Wunderground v.1.15,2013-08-29 21:55:00,
2013-08-29 15:00:00,71.6,56.5,29.98,SE,124,11.0,18.0,59,0.00,,,0.11,Wunderground v.1.15,2013-08-29 22:00:00,
2013-08-29 15:05:00,72.0,56.4,29.98,SE,136,10.0,18.0,58,0.00,,,0.11,Wunderground v.1.15,2013-08-29 22:05:00,
2013-08-29 15:15:00,72.1,56.0,29.99,East,99,8.0,9.0,57,0.00,,,0.11,Wunderground v.1.15,2013-08-29 22:15:00,
2013-08-29 15:25:00,73.2,55.0,29.99,ESE,123,3.0,11.0,53,0.00,,,0.11,Wunderground v.1.15,2013-08-29 22:25:00,
2013-08-29 15:35:00,73.5,54.3,29.99,ESE,117,4.0,7.0,51,0.00,,,0.11,Wunderground v.1.15,2013-08-29 22:35:00,
2013-08-29 15:40:00,73.3,55.6,29.99,SE,131,5.0,6.0,54,0.00,,,0.11,Wunderground v.1.15,2013-08-29 22:40:00,
2013-08-29 15:50:00,72.7,55.1,29.98,ESE,109,7.0,7.0,54,0.00,,,0.11,Wunderground v.1.15,2013-08-29 22:50:00,
2013-08-29 16:00:00,73.2,55.6,29.98,SE,131,7.0,7.0,54,0.00,,,0.11,Wunderground v.1.15,2013-08-29 23:00:00,
2013-08-29 16:05:00,73.5,54.3,29.98,ESE,110,7.0,12.0,51,0.00,,,0.11,Wunderground v.1.15,2013-08-29 23:05:00,
2013-08-29 16:15:00,74.0,54.2,29.98,East,80,9.0,16.0,50,0.00,,,0.11,Wunderground v.1.15,2013-08-29 23:15:00,
2013-08-29 16:25:00,73.7,53.9,29.98,NE,54,8.0,10.0,50,0.00,,,0.11,Wunderground v.1.15,2013-08-29 23:25:00,
2013-08-29 16:35:00,73.5,54.3,29.97,East,88,7.0,10.0,51,0.00,,,0.11,Wunderground v.1.15,2013-08-29 23:35:00,
2013-08-29 16:45:00,73.5,54.3,29.97,ESE,114,4.0,10.0,51,0.00,,,0.11,Wunderground v.1.15,2013-08-29 23:45:00,
2013-08-29 16:55:00,73.3,54.1,29.97,ESE,104,6.0,7.0,51,0.00,,,0.11,Wunderground v.1.15,2013-08-29 23:55:00,
2013-08-29 17:00:00,73.5,54.3,29.97,SE,126,5.0,11.0,51,0.00,,,0.11,Wunderground v.1.15,2013-08-30 00:00:00,
2013-08-29 17:05:00,73.7,54.4,29.97,East,95,6.0,11.0,51,0.00,,,0.11,Wunderground v.1.15,2013-08-30 00:05:00,
2013-08-29 17:15:00,74.0,53.6,29.96,ESE,116,6.0,11.0,49,0.00,,,0.11,Wunderground v.1.15,2013-08-30 00:15:00,
2013-08-29 17:20:00,74.0,54.2,29.96,SE,126,7.0,7.0,50,0.00,,,0.11,Wunderground v.1.15,2013-08-30 00:20:00,
2013-08-29 17:30:00,73.7,53.3,29.96,ESE,103,6.0,6.0,49,0.00,,,0.11,Wunderground v.1.15,2013-08-30 00:30:00,
2013-08-29 17:40:00,73.3,53.5,29.96,ESE,112,6.0,11.0,50,0.00,,,0.11,Wunderground v.1.15,2013-08-30 00:40:00,
2013-08-29 17:50:00,73.2,53.4,29.96,SE,126,7.0,7.0,50,0.00,,,0.11,Wunderground v.1.15,2013-08-30 00:50:00,
2013-08-29 18:00:00,72.5,54.9,29.97,SE,141,9.0,12.0,54,0.00,,,0.11,Wunderground v.1.15,2013-08-30 01:00:00,
2013-08-29 18:05:00,72.0,54.9,29.97,SE,126,10.0,12.0,55,0.00,,,0.11,Wunderground v.1.15,2013-08-30 01:05:00,
2013-08-29 18:15:00,70.4,55.4,29.98,SE,128,9.0,16.0,59,0.00,,,0.11,Wunderground v.1.15,2013-08-30 01:15:00,
2013-08-29 18:25:00,68.8,56.1,29.98,ENE,78,10.0,14.0,64,0.00,,,0.11,Wunderground v.1.15,2013-08-30 01:25:00,
2013-08-29 18:35:00,68.4,55.7,29.98,ESE,113,8.0,16.0,64,0.00,,,0.11,Wunderground v.1.15,2013-08-30 01:35:00,
2013-08-29 18:45:00,67.8,56.0,29.98,SE,124,10.0,16.0,66,0.00,,,0.11,Wunderground v.1.15,2013-08-30 01:45:00,
2013-08-29 18:50:00,67.4,56.5,29.98,ESE,123,11.0,19.0,68,0.00,,,0.11,Wunderground v.1.15,2013-08-30 01:50:00,
2013-08-29 19:00:00,67.1,56.6,29.98,East,99,10.0,11.0,69,0.00,,,0.11,Wunderground v.1.15,2013-08-30 02:00:00,
2013-08-29 19:05:00,67.1,56.6,29.98,East,93,9.0,11.0,69,0.00,,,0.11,Wunderground v.1.15,2013-08-30 02:05:00,
2013-08-29 19:15:00,66.3,57.0,29.98,ESE,102,10.0,12.0,72,0.00,,,0.11,Wunderground v.1.15,2013-08-30 02:15:00,
2013-08-29 19:25:00,65.6,56.7,29.98,East,96,9.0,11.0,73,0.00,,,0.11,Wunderground v.1.15,2013-08-30 02:25:00,
2013-08-29 19:35:00,65.3,57.5,29.99,East,92,9.0,10.0,76,0.00,,,0.11,Wunderground v.1.15,2013-08-30 02:35:00,
2013-08-29 19:45:00,65.2,58.9,29.99,East,95,9.0,10.0,80,0.00,,,0.11,Wunderground v.1.15,2013-08-30 02:45:00,
2013-08-29 19:55:00,65.3,59.0,29.99,East,99,9.0,20.0,80,0.00,,,0.11,Wunderground v.1.15,2013-08-30 02:55:00,
2013-08-29 20:00:00,65.3,59.3,30.00,SE,133,9.0,9.0,81,0.00,,,0.11,Wunderground v.1.15,2013-08-30 03:00:00,
2013-08-29 20:05:00,65.3,60.3,30.00,East,99,9.0,9.0,84,0.00,,,0.11,Wunderground v.1.15,2013-08-30 03:05:00,
2013-08-29 20:15:00,65.6,59.6,30.01,ESE,123,10.0,13.0,81,0.00,,,0.11,Wunderground v.1.15,2013-08-30 03:15:00,
2013-08-29 20:25:00,66.0,58.2,30.01,East,100,10.0,15.0,76,0.00,,,0.11,Wunderground v.1.15,2013-08-30 03:25:00,
2013-08-29 20:35:00,66.0,58.6,30.01,East,93,10.0,12.0,77,0.00,,,0.11,Wunderground v.1.15,2013-08-30 03:35:00,
2013-08-29 20:45:00,66.4,58.2,30.01,ESE,112,9.0,19.0,75,0.00,,,0.11,Wunderground v.1.15,2013-08-30 03:45:00,
2013-08-29 21:00:00,67.1,58.2,30.01,ESE,123,12.0,12.0,73,0.00,,,0.11,Wunderground v.1.15,2013-08-30 04:00:00,
2013-08-29 21:05:00,66.9,58.3,30.01,ESE,110,11.0,13.0,74,0.00,,,0.11,Wunderground v.1.15,2013-08-30 04:05:00,
2013-08-29 21:15:00,66.8,59.7,30.01,SE,127,11.0,17.0,78,0.00,,,0.11,Wunderground v.1.15,2013-08-30 04:15:00,
2013-08-29 21:20:00,66.6,60.2,30.01,SE,127,10.0,10.0,80,0.00,,,0.11,Wunderground v.1.15,2013-08-30 04:20:00,
2013-08-29 21:30:00,66.6,59.2,30.01,ESE,106,9.0,9.0,77,0.00,,,0.11,Wunderground v.1.15,2013-08-30 04:30:00,
2013-08-29 21:40:00,66.6,60.2,30.01,SSE,162,9.0,9.0,80,0.00,,,0.11,Wunderground v.1.15,2013-08-30 04:40:00,
2013-08-29 21:50:00,66.6,61.9,30.02,ESE,119,10.0,19.0,85,0.00,,,0.11,Wunderground v.1.15,2013-08-30 04:50:00,
2013-08-29 21:55:00,66.8,59.0,30.02,SE,141,11.0,19.0,76,0.00,,,0.11,Wunderground v.1.15,2013-08-30 04:55:00,
2013-08-29 22:00:00,66.9,58.0,30.02,SE,124,12.0,12.0,73,0.00,,,0.11,Wunderground v.1.15,2013-08-30 05:00:00,
2013-08-29 22:05:00,67.1,57.4,30.02,ESE,116,11.0,12.0,71,0.00,,,0.11,Wunderground v.1.15,2013-08-30 05:05:00,
2013-08-29 22:15:00,67.3,57.2,30.03,ESE,119,10.0,12.0,70,0.00,,,0.11,Wunderground v.1.15,2013-08-30 05:15:00,
2013-08-29 22:25:00,67.1,57.0,30.03,SE,134,7.0,16.0,70,0.00,,,0.11,Wunderground v.1.15,2013-08-30 05:25:00,
2013-08-29 22:35:00,66.9,57.2,30.03,ENE,72,10.0,10.0,71,0.00,,,0.11,Wunderground v.1.15,2013-08-30 05:35:00,
2013-08-29 22:45:00,66.8,57.5,30.02,East,80,9.0,13.0,72,0.00,,,0.11,Wunderground v.1.15,2013-08-30 05:45:00,
2013-08-29 22:50:00,66.8,57.9,30.02,East,83,10.0,10.0,73,0.00,,,0.11,Wunderground v.1.15,2013-08-30 05:50:00,
2013-08-29 23:00:00,66.6,57.7,30.03,ENE,64,10.0,10.0,73,0.00,,,0.11,Wunderground v.1.15,2013-08-30 06:00:00,
2013-08-29 23:05:00,66.4,57.5,30.03,East,89,9.0,10.0,73,0.00,,,0.11,Wunderground v.1.15,2013-08-30 06:05:00,
2013-08-29 23:15:00,66.4,57.1,30.04,ESE,103,9.0,10.0,72,0.00,,,0.11,Wunderground v.1.15,2013-08-30 06:15:00,
2013-08-29 23:25:00,66.4,57.1,30.04,East,89,10.0,10.0,72,0.00,,,0.11,Wunderground v.1.15,2013-08-30 06:25:00,
2013-08-29 23:35:00,66.1,56.0,30.03,East,85,8.0,9.0,70,0.00,,,0.11,Wunderground v.1.15,2013-08-30 06:35:00,
2013-08-29 23:45:00,66.1,55.6,30.02,ESE,113,10.0,10.0,69,0.00,,,0.11,Wunderground v.1.15,2013-08-30 06:45:00,
2013-08-29 23:55:00,66.1,54.8,30.02,ESE,114,9.0,9.0,67,0.00,,,0.11,Wunderground v.1.15,2013-08-30 06:55:00,